Погода в Новом Реданте

Россия / Республика Ингушетия     43°28′20″N   44°48′19″E
темп.,
°C
ветер,
м/с
пор.,
м/с
влажн.,
%
обл.,
%
осадки,
мм/ч
давл.,
гПа
погр.,
м
11 мая, вт
вт1100:00+5юз22805 0.0 102112
03:00+4ююв22865 0.0 101913
06:00+5юв258046 0.0 1019151
09:00+11вюв675991 0.0 1016979
12:00+14в56532 0.0 10141241
15:00+16всв554951 0.0 10131661
18:00+12в7106577 0.0 1015451
21:00+7вюв377755 0.0 1016142
12 мая, ср
ср1200:00+6юв12840 0.0 101612
03:00+6юз11860 0.0 101610
06:00+8зюз11800 0.0 101759
09:00+13ссв22600 0.0 1016656
12:00+16ссв32540 0.0 10161028
15:00+18всв22552 0.0 10151185
18:00+17в22680 0.0 101558
21:00+13ююв11731 0.0 101510
13 мая, чт
чт1300:00+11ююв22774 0.0 101411
03:00+11ююв11827 0.0 101310
06:00+13ююв12800 0.0 101462
09:00+18в34650 0.0 1014506
12:00+22в45560 0.0 1013809
15:00+23в4553100 0.0 1013997
18:00+21всв35710 0.0 1013137
21:00+16ююв228188 0.0 101411
14 мая, пт
пт1400:00+15ююв1180100 0.0 101311
03:00+14ююз118215 0.0 101311
06:00+16зюз11815 0.0 101332
09:00+22св11625 0.0 1013406
12:00+26всв43565 0.0 1012740
15:00+26в33511 0.0 1011912
18:00+25всв11665 0.0 101118
21:00+19ююз11734 0.0 101211
15 мая, сб
сб1500:00+18юз11785 0.0 101111
03:00+17юз11833 0.0 101111
06:00+19юз11775 0.0 101226
09:00+24ссз21626 0.0 1012479
12:00+26ссв21595 0.0 10121033
15:00+28ссв215617 0.0 10111390
18:00+25зсз1169100 1.6 101215
21:00+20сз3383100 2.3 101331